Regional Weather Roundup
Issued by NWS Midland/Odessa, TX

Skip options and go directly to product.
Home | Oldest Version | Next Version | Current Version | All | Text Only | Save Text | Print | Product List | Glossary On

Skip product version selection by date and time.   
577
ASUS44 KMAF 282101
RWRMAF
MIDLAND AREA WEATHER ROUNDUP
NATIONAL WEATHER SERVICE MIDLAND TX
400 PM CDT THU APR 28 2016

...IN SOUTHWEST TEXAS AND SOUTHEAST NEW MEXICO...

CITY           SKY/WX    TMP DP  RH WIND       PRES   REMARKS
ALPINE         SUNNY     86   9   5 SW14G31   29.84F
ANDREWS        FAIR      86  26  11 SW12G17   29.73F
ARTESIA        SUNNY     84  18   8 SW18G29   29.70S
BIG SPRING     MOSUNNY   83  50  32 SE22G33   29.75F
CARLSBAD       SUNNY     88  11   5 SW20G26   29.68F
DRYDEN           N/A     89  62  40 SE16G25   29.69F
FORT STOCKTON  SUNNY     89  22   8 CALM      29.67F
GUAD PASS      NOT AVBL
HOBBS          SUNNY     84  14   7 S14G24    29.73F
MARFA          SUNNY     82  13   7 SW7G26    29.81F
MIDLAND AIRPK  SUNNY     91  33  13 S15G21    29.71F
MIDLAND INTL   MOSUNNY   89  38  16 S17G26    29.69F
ODESSA         SUNNY     90  22   8 SW12G21   29.71F
PECOS          SUNNY     90  17   6 SW3       29.66F
PRESIDIO       FAIR      92  13   5 MISG      29.68F
SEMINOLE       SUNNY     86  27  11 SW13      29.72F
SNYDER           N/A     84  54  34 S22G29    29.75S
WINK           SUNNY     91  19   7 SW8       29.67F
$$
...OTHER STATIONS IN TEXAS...

CITY           SKY/WX    TMP DP  RH WIND       PRES   REMARKS
ABILENE        SUNNY     82  54  37 SE23G32   29.77F
AMARILLO       PTSUNNY   72  51  47 E21G32    29.81F
AUSTIN         PTSUNNY   86  66  51 SE15      29.75F
BROWNSVILLE    PTSUNNY   85  76  74 SE17G25   29.69F
CORPUS CHRISTI PTSUNNY   83  74  74 SE16      29.72F
DALLAS FTW     MOSUNNY   83  55  38 SE15      29.81F
DEL RIO        SUNNY     86  63  45 SE17G24   29.68F
EL PASO        FAIR      81  12   7 W12G24    29.74F
HOUSTON INT    CLOUDY    82  73  74 SE18      29.80F
LUBBOCK        LGT RAIN  78  53  41 SE21G31   29.72F
SAN ANGELO     SUNNY     85  56  37 SE18G25   29.74F
SAN ANTONIO    CLOUDY    78  70  76 SE10      29.77F
WACO           SUNNY     84  64  50 E14       29.79F
WICHITA FALLS  NOT AVBL
$$
...OTHER LOCATIONS IN NEW MEXICO...

CITY           SKY/WX    TMP DP  RH WIND       PRES   REMARKS
ALAMAGORDO     SUNNY     81  16   9 SW15G33   29.75F
ALBUQUERQUE    MOSUNNY   73  12   9 S21G35    29.72F
CANNON AFB     NOT AVBL
CLOVIS         SUNNY     82  27  13 S21G28    29.74F
HOLLOMAN AFB   SUNNY     79  16   9 SW20G33   29.74S
ROSWELL        SUNNY     86  19   8 S24G36    29.67F
RUIDOSO          N/A     66  14  13 SW20G32   29.88S
SANTA FE       SUNNY     73   2   6 SW21G30   29.75S
TRUTH OR CONSE FAIR      75   5   6 SW18G26   29.72F
TUCUMCARI      SUNNY     76  41  28 NE15G24   29.74F
$$

USA.gov is the U.S. government's official web portal to all federal, state and local government web resources and services.